Location: Bellflower
(33.8817°N, 118.1170°W)
Time: 12:49:37
(UTC+00:00)

Cosmos 2084 - Pass Details

Date: 23 November 2020
Orbit: 558 x 624 km, 62.8° (Epoch: 21 January)

Event Time Altitude Azimuth Distance (km) Brightness Sun altitude
Exits shadow 13:46:49 - 333° (NNW) 2,523 6.3 -9.7°
Reaches altitude 10° 13:48:11 10° 335° (NNW) 1,988 5.8 -9.5°
Maximum altitude 13:52:40 63° 57° (ENE) 693 4.0 -8.6°
Drops below altitude 10° 13:57:08 10° 139° (SE) 1,986 7.2 -7.7°
Sets 13:59:26 0° 142° (SE) 2,887 8.1 -7.3°
